Location: Newark
(35.5300°N, 14.3000°E)
Time: 01:40:14
(UTC+00:00)

Transit 4A - Pass Details

Date: 02 December 2019
Orbit: 871 x 973 km, 66.8° (Epoch: 23 January)

Event Time Altitude Azimuth Distance (km) Brightness Sun altitude
Rises 17:06:07 0° 196° (SSW) 3,629 11.5 -15.3°
Reaches altitude 10° 17:08:42 10° 193° (SSW) 2,676 10.7 -15.8°
Maximum altitude 17:14:51 64° 113° (ESE) 1,038 7.9 -17.0°
Enters shadow 17:19:05 20° 37° (NE) 1,985 9.2 -17.8°
